Time,TemperatureF,DewpointF,PressureIn,WindDirection,WindDirectionDegrees,WindSpeedMPH,WindSpeedGustMPH,Humidity,HourlyPrecipIn,Conditions,Clouds,dailyrainin,SoftwareType,DateUTC
2013-02-28 00:22:00,41.0,40.0,29.60,WNW,300,8.0,9.0,97,-99.99,,,-99.99,,2013-02-28 05:22:00,
2013-02-28 00:31:00,41.0,40.0,29.60,WNW,300,8.0,9.0,97,-99.99,,,-99.99,,2013-02-28 05:31:00,
2013-02-28 00:42:00,41.0,40.0,29.59,WNW,300,10.0,11.0,97,-99.99,,,-99.99,,2013-02-28 05:42:00,
2013-02-28 00:51:00,41.0,40.0,29.60,WNW,300,9.0,11.0,97,-99.99,,,-99.99,,2013-02-28 05:51:00,
2013-02-28 01:01:00,41.0,40.0,29.60,WNW,300,9.0,11.0,97,-99.99,,,-99.99,,2013-02-28 06:01:00,
2013-02-28 01:11:00,41.0,40.0,29.60,WNW,300,9.0,11.0,97,-99.99,,,-99.99,,2013-02-28 06:11:00,
2013-02-28 01:21:00,40.0,39.0,29.59,WNW,290,9.0,11.0,97,-99.99,,,-99.99,,2013-02-28 06:21:00,
2013-02-28 01:31:00,39.0,39.0,29.59,NW,310,13.0,16.0,97,-99.99,,,-99.99,,2013-02-28 06:31:00,
2013-02-28 01:41:00,39.0,39.0,29.59,NW,310,13.0,16.0,97,-99.99,,,-99.99,,2013-02-28 06:41:00,
2013-02-28 01:51:00,39.0,38.0,29.59,NNW,330,8.0,9.0,97,-99.99,,,-99.99,,2013-02-28 06:51:00,
2013-02-28 02:01:00,39.0,38.0,29.59,NNW,330,8.0,9.0,97,-99.99,,,-99.99,,2013-02-28 07:01:00,
2013-02-28 02:11:00,39.0,38.0,29.59,NNW,330,8.0,9.0,97,-99.99,,,-99.99,,2013-02-28 07:11:00,
2013-02-28 02:21:00,39.0,38.0,29.59,West,280,6.0,8.0,97,-99.99,,,-99.99,,2013-02-28 07:21:00,
2013-02-28 02:31:00,38.0,38.0,29.58,West,260,6.0,7.0,97,-99.99,,,-99.99,,2013-02-28 07:31:00,
2013-02-28 02:41:00,38.0,38.0,29.58,West,260,6.0,7.0,97,-99.99,,,-99.99,,2013-02-28 07:41:00,
2013-02-28 02:51:00,38.0,38.0,29.59,WSW,240,9.0,9.0,97,-99.99,,,-99.99,,2013-02-28 07:51:00,
2013-02-28 03:01:00,38.0,38.0,29.59,WSW,240,9.0,9.0,97,-99.99,,,-99.99,,2013-02-28 08:01:00,
2013-02-28 03:11:00,38.0,37.0,29.59,West,260,9.0,11.0,96,-99.99,,,-99.99,,2013-02-28 08:11:00,
2013-02-28 03:21:00,38.0,37.0,29.59,WNW,290,9.0,10.0,95,-99.99,,,-99.99,,2013-02-28 08:21:00,
2013-02-28 03:31:00,38.0,37.0,29.59,West,270,7.0,9.0,96,-99.99,,,-99.99,,2013-02-28 08:31:00,
2013-02-28 03:41:00,38.0,37.0,29.59,West,270,7.0,9.0,96,-99.99,,,-99.99,,2013-02-28 08:41:00,
2013-02-28 03:52:00,38.0,37.0,29.59,West,270,6.0,8.0,95,-99.99,,,-99.99,,2013-02-28 08:52:00,
2013-02-28 04:02:00,38.0,37.0,29.59,West,270,6.0,8.0,95,-99.99,,,-99.99,,2013-02-28 09:02:00,
2013-02-28 04:11:00,38.0,37.0,29.59,West,260,7.0,8.0,96,-99.99,,,-99.99,,2013-02-28 09:11:00,
2013-02-28 04:21:00,38.0,37.0,29.59,West,260,11.0,13.0,95,-99.99,,,-99.99,,2013-02-28 09:21:00,
2013-02-28 04:31:00,38.0,36.0,29.59,WNW,290,8.0,9.0,95,-99.99,,,-99.99,,2013-02-28 09:31:00,
2013-02-28 04:41:00,38.0,36.0,29.59,WNW,290,8.0,9.0,95,-99.99,,,-99.99,,2013-02-28 09:41:00,
2013-02-28 04:51:00,38.0,36.0,29.59,WNW,290,8.0,9.0,95,-99.99,,,-99.99,,2013-02-28 09:51:00,
2013-02-28 05:01:00,38.0,36.0,29.59,NW,310,6.0,7.0,95,-99.99,,,-99.99,,2013-02-28 10:01:00,
2013-02-28 05:11:00,38.0,36.0,29.59,NW,310,6.0,7.0,95,-99.99,,,-99.99,,2013-02-28 10:11:00,
2013-02-28 05:21:00,37.0,36.0,29.60,NW,310,6.0,7.0,96,-99.99,,,-99.99,,2013-02-28 10:21:00,
2013-02-28 05:31:00,37.0,36.0,29.60,NW,310,6.0,7.0,96,-99.99,,,-99.99,,2013-02-28 10:31:00,
2013-02-28 05:41:00,37.0,36.0,29.60,WNW,300,5.0,6.0,96,-99.99,,,-99.99,,2013-02-28 10:41:00,
2013-02-28 05:51:00,37.0,36.0,29.59,NNW,340,3.0,5.0,96,-99.99,,,-99.99,,2013-02-28 10:51:00,
2013-02-28 06:01:00,37.0,36.0,29.59,NNW,340,3.0,5.0,96,-99.99,,,-99.99,,2013-02-28 11:01:00,
2013-02-28 06:11:00,37.0,36.0,29.59,North,10,5.0,6.0,96,-99.99,,,-99.99,,2013-02-28 11:11:00,
2013-02-28 06:21:00,37.0,36.0,29.59,NNE,20,6.0,6.0,96,-99.99,,,-99.99,,2013-02-28 11:21:00,
2013-02-28 06:31:00,37.0,36.0,29.59,NNE,20,6.0,6.0,96,-99.99,,,-99.99,,2013-02-28 11:31:00,
2013-02-28 06:41:00,37.0,36.0,29.59,NE,40,3.0,3.0,97,-99.99,,,-99.99,,2013-02-28 11:41:00,
2013-02-28 06:52:00,37.0,36.0,29.59,NNE,30,3.0,5.0,97,-99.99,,,-99.99,,2013-02-28 11:52:00,
2013-02-28 07:01:00,37.0,36.0,29.59,NNE,30,3.0,5.0,97,-99.99,,,-99.99,,2013-02-28 12:01:00,
2013-02-28 07:11:00,37.0,36.0,29.59,NNE,20,2.0,3.0,96,-99.99,,,-99.99,,2013-02-28 12:11:00,
2013-02-28 07:21:00,37.0,36.0,29.59,ENE,70,2.0,2.0,96,-99.99,,,-99.99,,2013-02-28 12:21:00,
2013-02-28 07:31:00,37.0,36.0,29.59,ENE,70,2.0,2.0,96,-99.99,,,-99.99,,2013-02-28 12:31:00,
2013-02-28 07:42:00,37.0,36.0,29.60,NNE,30,1.0,2.0,96,-99.99,,,-99.99,,2013-02-28 12:42:00,
2013-02-28 07:52:00,37.0,36.0,29.60,NE,40,1.0,2.0,96,-99.99,,,-99.99,,2013-02-28 12:52:00,
2013-02-28 08:01:00,37.0,36.0,29.60,NE,40,1.0,2.0,96,-99.99,,,-99.99,,2013-02-28 13:01:00,
2013-02-28 08:11:00,37.0,36.0,29.60,NNE,20,2.0,3.0,96,-99.99,,,-99.99,,2013-02-28 13:11:00,
2013-02-28 08:21:00,37.0,36.0,29.60,North,360,6.0,6.0,96,-99.99,,,-99.99,,2013-02-28 13:21:00,
2013-02-28 08:31:00,38.0,37.0,29.60,North,360,6.0,7.0,95,-99.99,,,-99.99,,2013-02-28 13:31:00,
2013-02-28 08:41:00,38.0,37.0,29.60,North,360,6.0,7.0,95,-99.99,,,-99.99,,2013-02-28 13:41:00,
2013-02-28 08:51:00,39.0,37.0,29.60,NE,40,3.0,5.0,91,-99.99,,,-99.99,,2013-02-28 13:51:00,
2013-02-28 09:01:00,39.0,37.0,29.60,NE,40,3.0,5.0,91,-99.99,,,-99.99,,2013-02-28 14:01:00,
2013-02-28 09:11:00,38.0,36.0,29.61,East,80,6.0,6.0,91,-99.99,,,-99.99,,2013-02-28 14:11:00,
2013-02-28 09:21:00,38.0,36.0,29.61,ESE,120,6.0,7.0,94,-99.99,,,-99.99,,2013-02-28 14:21:00,
2013-02-28 09:31:00,38.0,37.0,29.60,East,100,6.0,7.0,95,-99.99,,,-99.99,,2013-02-28 14:31:00,
2013-02-28 09:41:00,38.0,37.0,29.60,East,100,6.0,7.0,95,-99.99,,,-99.99,,2013-02-28 14:41:00,
2013-02-28 09:52:00,38.0,37.0,29.60,ESE,110,6.0,7.0,95,-99.99,,,-99.99,,2013-02-28 14:52:00,
2013-02-28 10:01:00,38.0,37.0,29.60,ESE,110,6.0,7.0,95,-99.99,,,-99.99,,2013-02-28 15:01:00,
2013-02-28 10:11:00,38.0,37.0,29.59,ESE,110,7.0,8.0,95,-99.99,,,-99.99,,2013-02-28 15:11:00,
2013-02-28 10:21:00,39.0,37.0,29.59,ESE,110,6.0,7.0,93,-99.99,,,-99.99,,2013-02-28 15:21:00,
2013-02-28 10:31:00,39.0,37.0,29.59,ESE,110,6.0,7.0,93,-99.99,,,-99.99,,2013-02-28 15:31:00,
2013-02-28 10:41:00,39.0,37.0,29.59,ESE,110,6.0,7.0,93,-99.99,,,-99.99,,2013-02-28 15:41:00,
2013-02-28 10:51:00,39.0,37.0,29.59,ESE,110,5.0,6.0,94,-99.99,,,-99.99,,2013-02-28 15:51:00,
2013-02-28 11:01:00,39.0,37.0,29.59,ESE,110,5.0,6.0,94,-99.99,,,-99.99,,2013-02-28 16:01:00,
2013-02-28 11:11:00,39.0,38.0,29.59,ESE,110,6.0,6.0,93,-99.99,,,-99.99,,2013-02-28 16:11:00,
2013-02-28 11:21:00,40.0,38.0,29.59,ESE,120,7.0,8.0,93,-99.99,,,-99.99,,2013-02-28 16:21:00,
2013-02-28 11:31:00,40.0,38.0,29.59,ESE,120,9.0,9.0,93,-99.99,,,-99.99,,2013-02-28 16:31:00,
2013-02-28 11:41:00,40.0,38.0,29.59,ESE,120,9.0,9.0,93,-99.99,,,-99.99,,2013-02-28 16:41:00,
2013-02-28 11:52:00,40.0,38.0,29.58,SE,130,10.0,11.0,93,-99.99,,,-99.99,,2013-02-28 16:52:00,
2013-02-28 12:01:00,40.0,38.0,29.58,SE,130,10.0,11.0,93,-99.99,,,-99.99,,2013-02-28 17:01:00,
2013-02-28 12:11:00,40.0,38.0,29.58,SE,130,10.0,10.0,91,-99.99,,,-99.99,,2013-02-28 17:11:00,
2013-02-28 12:21:00,40.0,37.0,29.57,ESE,120,10.0,11.0,91,-99.99,,,-99.99,,2013-02-28 17:21:00,
2013-02-28 12:31:00,40.0,37.0,29.57,ESE,120,10.0,11.0,91,-99.99,,,-99.99,,2013-02-28 17:31:00,
2013-02-28 12:41:00,40.0,37.0,29.57,ESE,120,9.0,10.0,89,-99.99,,,-99.99,,2013-02-28 17:41:00,
2013-02-28 12:52:00,40.0,38.0,29.56,ESE,110,7.0,8.0,91,-99.99,,,-99.99,,2013-02-28 17:52:00,
2013-02-28 13:01:00,40.0,38.0,29.56,ESE,110,7.0,8.0,91,-99.99,,,-99.99,,2013-02-28 18:01:00,
2013-02-28 13:11:00,41.0,38.0,29.55,East,100,7.0,8.0,89,-99.99,,,-99.99,,2013-02-28 18:11:00,
2013-02-28 13:21:00,41.0,38.0,29.55,East,100,7.0,7.0,87,-99.99,,,-99.99,,2013-02-28 18:21:00,
2013-02-28 13:31:00,41.0,38.0,29.55,East,100,7.0,7.0,87,-99.99,,,-99.99,,2013-02-28 18:31:00,
2013-02-28 13:41:00,41.0,38.0,29.54,East,100,7.0,8.0,87,-99.99,,,-99.99,,2013-02-28 18:41:00,
2013-02-28 13:51:00,42.0,37.0,29.54,East,100,7.0,8.0,84,-99.99,,,-99.99,,2013-02-28 18:51:00,
2013-02-28 14:01:00,42.0,37.0,29.54,East,100,7.0,8.0,84,-99.99,,,-99.99,,2013-02-28 19:01:00,
2013-02-28 14:11:00,42.0,37.0,29.53,East,100,7.0,8.0,85,-99.99,,,-99.99,,2013-02-28 19:11:00,
2013-02-28 14:21:00,41.0,37.0,29.53,East,100,7.0,7.0,85,-99.99,,,-99.99,,2013-02-28 19:21:00,
2013-02-28 14:31:00,42.0,38.0,29.53,ESE,120,5.0,5.0,86,-99.99,,,-99.99,,2013-02-28 19:31:00,
2013-02-28 14:41:00,42.0,38.0,29.53,ESE,120,5.0,5.0,86,-99.99,,,-99.99,,2013-02-28 19:41:00,
2013-02-28 14:51:00,42.0,38.0,29.53,SSE,150,5.0,5.0,85,-99.99,,,-99.99,,2013-02-28 19:51:00,
2013-02-28 15:01:00,42.0,38.0,29.53,SSE,150,5.0,5.0,85,-99.99,,,-99.99,,2013-02-28 20:01:00,
2013-02-28 15:11:00,40.0,38.0,29.53,South,170,9.0,10.0,91,-99.99,,,-99.99,,2013-02-28 20:11:00,
2013-02-28 15:21:00,41.0,38.0,29.53,South,180,9.0,9.0,91,-99.99,,,-99.99,,2013-02-28 20:21:00,
2013-02-28 15:31:00,41.0,38.0,29.53,South,180,9.0,9.0,91,-99.99,,,-99.99,,2013-02-28 20:31:00,
2013-02-28 15:41:00,40.0,38.0,29.53,South,180,8.0,9.0,91,-99.99,,,-99.99,,2013-02-28 20:41:00,
2013-02-28 15:52:00,41.0,39.0,29.53,South,190,7.0,7.0,90,-99.99,,,-99.99,,2013-02-28 20:52:00,
2013-02-28 16:01:00,41.0,39.0,29.53,South,190,7.0,7.0,90,-99.99,,,-99.99,,2013-02-28 21:01:00,
2013-02-28 16:11:00,41.0,38.0,29.53,South,190,6.0,7.0,89,-99.99,,,-99.99,,2013-02-28 21:11:00,
2013-02-28 16:21:00,42.0,38.0,29.52,South,190,5.0,6.0,87,-99.99,,,-99.99,,2013-02-28 21:21:00,
2013-02-28 16:31:00,42.0,38.0,29.52,South,190,5.0,6.0,87,-99.99,,,-99.99,,2013-02-28 21:31:00,
2013-02-28 16:41:00,41.0,38.0,29.52,North,0,0.0,1.0,89,-99.99,,,-99.99,,2013-02-28 21:41:00,
2013-02-28 16:51:00,40.0,38.0,29.52,East,100,2.0,2.0,92,-99.99,,,-99.99,,2013-02-28 21:51:00,
2013-02-28 17:01:00,40.0,38.0,29.52,East,100,2.0,2.0,92,-99.99,,,-99.99,,2013-02-28 22:01:00,
2013-02-28 17:11:00,41.0,38.0,29.52,South,190,3.0,5.0,90,-99.99,,,-99.99,,2013-02-28 22:11:00,
2013-02-28 17:21:00,41.0,38.0,29.52,South,190,3.0,5.0,90,-99.99,,,-99.99,,2013-02-28 22:21:00,
2013-02-28 17:31:00,41.0,38.0,29.52,South,190,3.0,5.0,90,-99.99,,,-99.99,,2013-02-28 22:31:00,
2013-02-28 17:41:00,41.0,38.0,29.52,South,190,3.0,5.0,90,-99.99,,,-99.99,,2013-02-28 22:41:00,
2013-02-28 18:21:00,40.0,37.0,29.52,SSW,210,5.0,5.0,88,-99.99,,,-99.99,,2013-02-28 23:21:00,
2013-02-28 18:31:00,40.0,38.0,29.52,SSW,210,5.0,6.0,89,-99.99,,,-99.99,,2013-02-28 23:31:00,
2013-02-28 18:41:00,40.0,38.0,29.52,SSW,210,2.0,3.0,90,-99.99,,,-99.99,,2013-02-28 23:41:00,
2013-02-28 18:52:00,40.0,38.0,29.53,WSW,250,5.0,6.0,91,-99.99,,,-99.99,,2013-02-28 23:52:00,
2013-02-28 19:01:00,40.0,38.0,29.53,WSW,250,5.0,6.0,91,-99.99,,,-99.99,,2013-03-01 00:01:00,
2013-02-28 19:11:00,40.0,38.0,29.53,West,270,6.0,7.0,91,-99.99,,,-99.99,,2013-03-01 00:11:00,
2013-02-28 19:22:00,40.0,38.0,29.53,West,270,6.0,7.0,91,-99.99,,,-99.99,,2013-03-01 00:22:00,
2013-02-28 19:31:00,40.0,38.0,29.53,West,270,6.0,7.0,91,-99.99,,,-99.99,,2013-03-01 00:31:00,
2013-02-28 19:41:00,40.0,38.0,29.53,West,270,6.0,7.0,91,-99.99,,,-99.99,,2013-03-01 00:41:00,